Meteo Giornale » Osservazioni meteo Egitto » Cairo

ore: 07:30 - Osservazioni Meteo Cairo
Lat. 30° 8' N Lon. 31° 24' E Alt. 64 metri s.l.m.

nuvoloso Africa/Cairo

18 °C

Nuvoloso

Temp. 24 Ore

18 °C

23 °C

Sud-Ovest

14.8 Km/h

Dew point 8 °C

Umidità 51 %

Visibilità  10 Km

Il sole sorge alle ore 06:39

Il sole tramonta alle ore 16:56

Data e Ora Cielo e Fenomeni T °C DP °C Um. % Pres. hPa Vis. km Vento km/h
Oggi h: 07:30 nuvoloso Nuvoloso 18 8 51 1021 10 SO 14.8
Oggi h: 07:00 nuvoloso Nuvoloso 18 8 51 1021 10 S/SO 13
Oggi h: 06:30 nuvoloso Nuvoloso 18 7 48 1020 10 S/SO 13
Oggi h: 06:00 nuvoloso Nuvoloso 18 7 48 1020 10 S/SO 13
Oggi h: 05:30 molto_nuvoloso Molto Nuvoloso 18 7 48 1020 10 SO 13
Oggi h: 05:00 molto_nuvoloso Molto Nuvoloso 18 7 48 1020 10 SO 13
Oggi h: 04:30 molto_nuvoloso Molto Nuvoloso 18 8 51 1020 10 SO 13
Oggi h: 04:00 molto_nuvoloso Molto Nuvoloso 18 8 51 1020 10 SO 13
Oggi h: 03:30 molto_nuvoloso Molto Nuvoloso 18 8 51 1020 10 SO 13
Oggi h: 03:00 molto_nuvoloso Molto Nuvoloso 18 8 51 1020 10 SO 13
Oggi h: 02:30 molto_nuvoloso Molto Nuvoloso 19 8 48 1020 10 SO 13
Oggi h: 02:00 molto_nuvoloso Molto Nuvoloso 19 8 48 1020 10 SO 13
Oggi h: 01:30 nuvoloso Nuvoloso 19 8 48 1020 10 S/SO 14.8
Oggi h: 01:00 nuvoloso Nuvoloso 19 8 48 1020 10 S/SO 14.8
Oggi h: 00:30 nuvoloso Nuvoloso 19 8 48 1020 10 SO 13
Oggi h: 00:00 nuvoloso Nuvoloso 19 8 48 1020 10 SO 11.1
Ieri h: 23:30 nuvoloso Nuvoloso 19 8 48 1020 10 SO 11.1
Ieri h: 23:00 nuvoloso Nuvoloso 19 8 48 1020 10 SO 11.1
Ieri h: 22:30 poco_nuvoloso Poco Nuvoloso 19 9 52 1020 10 O/SO 11.1
Ieri h: 22:00 poco_nuvoloso Poco Nuvoloso 19 9 52 1020 10 O/SO 11.1
Ieri h: 21:30 poco_nuvoloso Poco Nuvoloso 19 9 52 1020 10 O/SO 11.1
Ieri h: 21:00 poco_nuvoloso Poco Nuvoloso 19 9 52 1020 10 O/SO 11.1
Ieri h: 20:30 nuvoloso Nuvoloso 19 9 52 1020 10 O/SO 11.1
Ieri h: 20:00 nuvoloso Nuvoloso 19 9 52 1020 10 O/SO 11.1
Ieri h: 19:30 nuvoloso Nuvoloso 20 9 49 1020 10 O 14.8
Ieri h: 19:00 nuvoloso Nuvoloso 20 9 49 1020 10 O 14.8
Ieri h: 18:30 nuvoloso Nuvoloso 20 9 49 1020 10 O 14.8
Ieri h: 18:00 nuvoloso Nuvoloso 21 9 46 1019 10 O 14.8
Ieri h: 17:30 molto_nuvoloso Molto Nuvoloso 21 9 46 1019 10 O 18.5
Ieri h: 17:00 molto_nuvoloso Molto Nuvoloso 21 8 43 1019 10 O/SO 24
Ieri h: 16:30 molto_nuvoloso Molto Nuvoloso 21 8 43 1019 10 O/SO 24
Ieri h: 16:00 molto_nuvoloso Molto Nuvoloso 22 8 40 1019 10 O/SO 20.3
Ieri h: 15:30 molto_nuvoloso Molto Nuvoloso 22 8 40 1019 10 O 24
Ieri h: 15:00 molto_nuvoloso Molto Nuvoloso 23 9 40 1018 10 O/SO 20.3
Ieri h: 14:30 molto_nuvoloso Molto Nuvoloso 23 8 38 1018 10 O/SO 25.9
Ieri h: 14:00 molto_nuvoloso Molto Nuvoloso 23 8 38 1018 10 O/SO 25.9
Ieri h: 13:30 molto_nuvoloso Molto Nuvoloso 22 8 40 1018 10 O/SO 25.9
Ieri h: 13:00 molto_nuvoloso Molto Nuvoloso 22 9 43 1019 10 SO 25.9
Ieri h: 12:30 molto_nuvoloso Molto Nuvoloso 22 7 37 1019 10 SO 29.6
Ieri h: 12:00 nuvoloso Nuvoloso 22 10 46 1019 10 SO 20.3
Ieri h: 11:30 poco_nuvoloso Poco Nuvoloso 21 10 49 1019 10 SO 24
Ieri h: 11:00 poco_nuvoloso Poco Nuvoloso 21 11 52 1020 10 SO 18.5
Ieri h: 10:30 sereno Sereno 20 11 56 1020 10 S/SO 22.2
Ieri h: 10:00 sereno Sereno 20 11 56 1021 10 SO 20.3
Ieri h: 09:30 sereno Sereno 19 10 55 1021 10 SO 18.5
Ieri h: 09:00 sereno Sereno 19 10 55 1020 10 S/SO 20.3
Ieri h: 08:30 sereno Sereno 18 10 59 1020 10 SO 18.5
Ieri h: 08:00 sereno Sereno 18 9 55 1020 10 SO 14.8
Ieri h: 07:30 sereno Sereno 18 9 55 1020 10 S/SO 16.7
Ieri h: 07:00 sereno Sereno 18 9 55 1019 10 S/SO 18.5